カタログに戻る

FENGYUN 1C DEB

運用中SSO
NORAD 38138·DEBRIS·🇨🇳 China

打ち上げ May 10, 1999 から Taiyuan Satellite Launch Center

Loading…

次のパス (今後24時間)

TLE

経年Source: Space-Track

元期: Sep 6, 2026, 12:36 UTC

1 38138U 99025EQK 26249.52509070  .00002500  00000-0  82193-3 0  9992
2 38138  98.8033 356.3333 0035342 257.4625 102.2607 14.38822166676514

AllMySatでFENGYUN 1C DEBをリアルタイム追跡

Download on the App Store